Regional Weather Roundup
Issued by NWS Bismarck, ND

Home | Current Version | Previous Version | Text Only | Print | Product List | Glossary On
Versions: 1 2 3 4 5 6 7 8 9 10 11 12 13 14 15 16 17 18 19 20 21 22 23 24 25 26 27 28 29 30 31 32 33 34 35 36 37 38 39 40 41 42 43 44 45 46 47 48 49 50
000
ASUS43 KBIS 281420
RWRBIS

NWR BROADCAST TEXT
NATIONAL WEATHER SERVICE BISMARCK ND
800 AM CST SAT FEB 28 2015

NOTE: "FAIR" INDICATES FEW OR NO CLOUDS BELOW 12,000 FEET WITH NO
SIGNIFICANT WEATHER AND/OR OBSTRUCTIONS TO VISIBILITY.


CITY           SKY/WX    TMP DP  RH WIND       PRES   REMARKS
WILLISTON      MOCLDY    -1  -8  72 W7        30.16R WCI -14
MINOT          CLOUDY     8   1  73 NW12      30.06R WCI  -7
MINOT AFB      CLOUDY     6   1  83 NW16      30.07R WCI -13
BISMARCK       CLOUDY     8   3  80 CALM      30.08S
DICKINSON      CLOUDY    10   5  80 W21       30.03R WCI  -9
GARRISON         N/A     10   4  76 CALM      30.04S
HETTINGER ARPT CLEAR      6   1  80 W12       30.05R WCI  -9
JAMESTOWN      CLEAR      3  -3  76 S14       30.12F WCI -15
BEACH          PTSUNNY    1   0  92 NW12      30.11R WCI -15
CARRINGTON     FAIR       9   3  78 MISG      30.10R
CROSBY         FAIR      -4  -9  77 W9        30.13S WCI -20
HARVEY         FAIR      12   5  73 NW6       30.07R WCI   3
HAZEN          CLOUDY    10   3  72 SW7       30.08R WCI   0
LINTON         CLOUDY    10   5  79 SE10      30.08F WCI  -3
MANDAN         CLOUDY    10   7  85 SW7       30.05S WCI   0
OAKES            N/A      7   0  72 S14       30.20S WCI -10
RUGBY          FAIR       5   0  78 SE6       30.06S WCI  -6
TIOGA          FAIR       0  -2  92 NW8       30.11R WCI -15
WATFORD CITY   FAIR       1  -4  78 W9        30.12R WCI -14
$$

CITY           SKY/WX    TMP DP  RH WIND       PRES   REMARKS
GRAND FORKS    CLOUDY     4  -2  76 S16       30.21F WCI -15
GRAND FORKS AF CLOUDY     4  -3  71 S10       30.19S WCI -11
DEVILS LAKE    MOCLDY     7  -2  66 S5        30.09S WCI  -2
FARGO          MOCLDY     6  -2  69 S14       30.26S WCI -11
CANDO          CLOUDY     5   0  78 SE8       30.08F WCI  -8
CAVALIER       FAIR       5   0  78 S9        30.17S WCI  -9
GWINNER        SUNNY     12   1  62 S16       30.22S WCI  -4
ROLLA          CLOUDY     5   0  78 CALM      30.04F
WALHALLA         N/A      3   0  85 E5        30.16R WCI  -6
$$

CITY           SKY/WX    TMP DP  RH WIND       PRES   REMARKS
ABERDEEN       PTCLDY     6  -1  73 S13       30.23F WCI -10
MOBRIDGE       CLOUDY    11   3  70 SE12      30.08S WCI  -3
BUFFALO          N/A      6   1  80 W9        29.99R WCI  -8
RAPID CITY     CLEAR     14   5  67 N20       30.05R WCI  -3
GLASGOW        CLOUDY    11   4  73 NW12      30.16R WCI  -3
SIDNEY         PTCLDY     3   0  85 W8        30.19S WCI -10
WOLF POINT     LGT SNOW  11   5  77 SW8       30.18R WCI  -1
GLENDIVE       CLOUDY     7   1  78 W3        30.15R
MILES CITY     CLOUDY    10   4  76 W6        30.17R WCI   0
BAKER          PTCLDY     3  -1  83 W17       30.10R WCI -17
$$

CITY           SKY/WX    TMP DP  RH WIND       PRES   REMARKS
BILLINGS       FLURRIES  15  10  80 E6        30.10S WCI   6
GREAT FALLS    LGT SNOW  12   8  84 SW5       30.13S FOG     WCI   4
REGINA         PTCLDY   -17 -22  76 W5        30.13S WCI -29
$$




USA.gov is the U.S. government's official web portal to all federal, state and local government web resources and services.